星链-30234 (STARLINK-30234 )

导读 | 星芒AI

STARLINK-30234 是 SpaceX Starlink 项目中的一颗低轨通信卫星,属于第三代 Starlink 卫星(也称为 v1.5 或 Block V)。该卫星于 2023 年发射,旨在为全球用户提供高速互联网服务。它运行在约 550 公里的轨道高度,具备改进的推进系统和通信能力,支持更广泛的覆盖和更高的数据传输速率。作为 Starlink 卫星群的一部分,STARLINK-30234 有助于提升偏远地区的网络连接,并增强整个星座的冗余与稳定性。

基本信息
目录编号:
57297
目录名称:
STARLINK-30234
国际标识:
2023-096H
轨道中心:
EARTH
卫星名称:
星链-30234
卫星全名:
星链-30234 (STARLINK-30234 )
卫星状态:
已陨落 最后检测时间 2025-11-09
发射日期:
2023-07-10 UTC
国别 :
美国 (US)
星等 :
--
轨道信息
数据来源 国际轨道数据
星历时间: 2025-11-08T20:55:31+0800
轨道信息已过期40天
半长轴: 6613.159km
偏心率: 0.0015811
轨道倾角: 42.965°
近地点辐角 339.869°
升交点赤经 84.792°
平近点角 20.157°
近地点: 224.567km
远地点: 245.481km
周期: 89.202分钟
每日圈数: 16.14319
详细信息
固有亮度:
5
最大亮度:
0.3
卫星平台:
Starlink v2.0 mini
覆盖范围:
全球
运营商:
太空探索技术公司
运营商所在国:
美国
制造商(研发单位):
太空探索技术公司
制造商所在国:
美国
使用方式:
暂无
卫星简介
星链(Starlink)计划是由太空探索技术公司(SpaceX)提出的一个巨型低轨卫星互联网星座项目,计划在2019年至2024年间在太空搭建由约1.2万颗卫星组成的“星链”网络,其中1584颗将部署在地球上空550千米处的近地轨道,并从2020年开始工作。该卫星仍在工作。